Torna al catalogo

STARLINK-30758

AttivoComunicazioniVLEO
NORAD 58133·PAYLOAD·🇺🇸 United States

Lanciato Oct 22, 2023 da Cape Canaveral Space Force Station

Loading…

Prossimi Passaggi (prossime 24 ore)

TLE

AggiornatoSource: CelesTrak SupGP

Epoca: Sep 15, 2026, 02:19 UTC

1 58133C 23162R   26258.09701389  .00066504  00000+0  24086-2 0  2584
2 58133  42.9991 139.5609 0001453 275.8002  52.8563 15.27548130    12

Traccia STARLINK-30758 in tempo reale con AllMySat

Download on the App Store